Terminal Aerodrome Forecast
Issued by NWS

Home | Current Version | Previous Version | Text Only | Print | Product List | Glossary On
Versions: 1 2 3 4 5 6 7 8 9 10 11 12 13
000
FTUS45 KABQ 191900 AAA
TAFGUP
TAF AMD
KGUP 191900Z 1919/2018 23011KT P6SM VCSH OVC080
      TEMPO 1922/2001 VRB18G25KT -TSRA BKN070CB
     FM200300 15008KT P6SM SCT080
     FM200700 20008KT P6SM SKC
     FM201700 23020G30KT P6SM SKC=

USA.gov is the U.S. government's official web portal to all federal, state and local government web resources and services.